DW9918 Weather Reports


Display with metric or nautical units.
time (UTC)temp
F
wind
direction
speed
MPH
gust
MPH
rain 1hr
in
rain 24hr
in
rain mn
in
humidity
%
barometer
mb
20260505041509 60 178 0.0 5.0 0.00 0.00 0.00 69 1013.8
20260505040030 59 124 1.0 2.0 0.00 0.00 0.00 69 1013.8
20260505034526 59 130 0.0 4.0 0.00 0.00 0.00 70 1013.8
20260505033031 58 95 1.0 2.0 0.00 0.00 0.00 74 1013.9
20260505031517 59 113 2.0 3.0 0.00 0.00 0.00 74 1014.1
20260505030020 59 220 0.0 1.0 0.00 0.00 0.00 71 1014.0
20260505024513 59 237 0.0 2.0 0.00 0.00 0.00 71 1014.1
20260505023036 59 252 1.0 2.0 0.00 0.00 0.00 71 1014.2
20260505021527 60 216 0.0 3.0 0.00 0.00 0.00 67 1014.3
20260505020022 60 243 2.0 4.0 0.00 0.00 0.00 67 1014.4
20260505014532 60 233 2.0 4.0 0.00 0.00 0.00 68 1014.5
20260505013018 60 213 1.0 5.0 0.00 0.00 0.00 68 1014.6
20260505011514 60 203 0.0 3.0 0.00 0.00 0.00 69 1014.7
20260505010011 61 140 1.0 3.0 0.00 0.00 0.00 68 1014.8
20260505004513 61 181 2.0 7.0 0.00 0.00 0.00 67 1015.0
20260505003004 62 230 3.0 7.0 0.00 0.00 0.00 66 1015.1
20260505001504 62 221 2.0 5.0 0.00 0.00 0.00 65 1015.3
20260505000022 61 178 1.0 4.0 0.00 0.00 0.00 68 1015.5
20260504234518 60 239 2.0 5.0 0.00 0.00 0.00 69 1015.8
20260504233014 60 224 2.0 4.0 0.00 0.00 0.00 68 1015.9
20260504231511 60 210 0.0 3.0 0.00 0.00 0.00 67 1016.0
20260504230008 60 214 0.0 2.0 0.00 0.00 0.00 66 1016.2
20260504224506 61 167 0.0 2.0 0.00 0.00 0.00 65 1016.2
20260504223020 62 184 1.0 4.0 0.00 0.00 0.00 64 1016.3
20260504221523 63 245 2.0 6.0 0.00 0.00 0.00 63 1016.3
20260504220014 63 231 3.0 9.0 0.00 0.00 0.00 63 1016.4
20260504214514 63 229 6.0 10.0 0.00 0.00 0.00 66 1016.5
20260504213014 63 245 4.0 8.0 0.00 0.00 0.00 70 1016.5
20260504211513 62 233 2.0 6.0 0.00 0.00 0.00 76 1016.5
20260504210036 62 227 2.0 3.0 0.00 0.00 0.00 78 1016.5
20260504204532 62 247 0.0 0.0 0.00 0.00 0.00 78 1016.6
20260504203025 62 151 0.0 0.0 0.00 0.00 0.00 76 1016.4
20260504201514 63 150 0.0 0.0 0.00 0.00 0.00 75 1016.2
20260504200014 63 153 0.0 0.0 0.00 0.00 0.00 74 1016.1
20260504194528 63 109 0.0 0.0 0.00 0.00 0.00 73 1016.1
20260504193028 63 108 0.0 1.0 0.00 0.00 0.00 73 1016.1
20260504191525 64 127 0.0 2.0 0.00 0.00 0.00 71 1016.0
20260504190022 64 115 1.0 2.0 0.00 0.00 0.00 72 1015.8
20260504184523 64 121 0.0 2.0 0.00 0.00 0.00 71 1015.9
20260504183018 65 153 1.0 3.0 0.00 0.00 0.00 70 1016.0
20260504181529 65 108 2.0 6.0 0.00 0.00 0.00 70 1016.0
20260504180028 66 104 5.0 8.0 0.00 0.00 0.00 70 1015.9
20260504174526 67 89 4.0 8.0 0.00 0.00 0.00 69 1015.9
20260504173023 67 127 5.0 11.0 0.00 0.00 0.00 67 1015.9
20260504171522 68 109 6.0 9.0 0.00 0.00 0.00 66 1015.9
20260504081512 70 289 5.0 9.0 0.00 0.00 0.00 46 1018.0